date,time,SUV Intensity [MED/Hr],UV Index,Daily total [MED],Since Last [MED]
17/07/2023,23:59:03,-0.001,0.0,12.063,12.063
18/07/2023,00:00:02,0.000,0.0,0.0,-12.063
18/07/2023,00:01:04,0.000,0.0,0.0,0.0
18/07/2023,00:02:04,-0.000,0.0,0.0,0.0
18/07/2023,00:03:04,0.000,0.0,0.0,0.0
18/07/2023,00:04:04,0.000,0.0,0.0,0.0
18/07/2023,00:05:04,0.000,0.0,0.0,0.0
18/07/2023,00:06:03,0.000,0.0,0.0,0.0
18/07/2023,00:07:04,0.000,0.0,0.0,0.0
18/07/2023,00:08:04,0.000,0.0,0.0,0.0
18/07/2023,00:09:03,0.001,0.0,0.0,0.0
18/07/2023,00:10:04,0.000,0.0,0.0,0.0
18/07/2023,00:11:03,0.000,0.0,0.0,0.0
18/07/2023,00:12:04,0.000,0.0,0.0,0.0
18/07/2023,00:13:03,0.000,0.0,0.0,0.0
18/07/2023,00:14:04,0.000,0.0,0.0,0.0
18/07/2023,00:15:04,0.000,0.0,0.0,0.0
18/07/2023,00:16:03,0.000,0.0,0.0,0.0
18/07/2023,00:17:04,0.000,0.0,0.0,0.0
18/07/2023,00:18:04,0.000,0.0,0.0,0.0
18/07/2023,00:19:04,0.000,0.0,0.0,0.0
18/07/2023,00:20:02,-0.001,0.0,0.0,0.0
18/07/2023,00:21:03,-0.001,0.0,0.0,0.0
18/07/2023,00:22:04,-0.001,0.0,0.0,0.0
18/07/2023,00:23:04,-0.001,0.0,0.0,0.0
18/07/2023,00:24:04,0.000,0.0,0.0,0.0
18/07/2023,00:25:08,0.000,0.0,0.0,0.0
18/07/2023,00:26:04,0.000,0.0,0.0,0.0
18/07/2023,00:27:03,0.000,0.0,0.0,0.0
18/07/2023,00:28:04,0.000,0.0,0.0,0.0
18/07/2023,00:29:04,0.000,0.0,0.0,0.0
18/07/2023,00:30:04,-0.001,0.0,0.0,0.0
18/07/2023,00:31:04,0.000,0.0,0.0,0.0
18/07/2023,00:32:04,0.001,0.0,0.0,0.0
18/07/2023,00:33:04,0.000,0.0,0.0,0.0
18/07/2023,00:34:03,0.000,0.0,0.0,0.0
18/07/2023,00:35:04,0.000,0.0,0.0,0.0
18/07/2023,00:36:04,-0.001,0.0,0.0,0.0
18/07/2023,00:37:04,0.000,0.0,0.0,0.0
18/07/2023,00:38:04,0.000,0.0,0.0,0.0
18/07/2023,00:39:04,0.000,0.0,0.0,0.0
18/07/2023,00:40:03,0.000,0.0,0.0,0.0
18/07/2023,00:41:04,-0.001,0.0,0.0,0.0
18/07/2023,00:42:03,-0.001,0.0,0.0,0.0
18/07/2023,00:43:04,0.001,0.0,0.0,0.0
18/07/2023,00:44:03,-0.001,0.0,0.0,0.0
18/07/2023,00:45:03,0.000,0.0,0.0,0.0
18/07/2023,00:46:03,0.000,0.0,0.0,0.0
18/07/2023,00:47:04,0.000,0.0,0.0,0.0
18/07/2023,00:48:04,0.000,0.0,0.0,0.0
18/07/2023,00:49:04,0.000,0.0,0.0,0.0
18/07/2023,00:50:03,-0.000,0.0,0.0,0.0
18/07/2023,00:51:04,0.001,0.0,0.0,0.0
18/07/2023,00:52:04,0.000,0.0,0.0,0.0
18/07/2023,00:53:04,0.001,0.0,0.0,0.0
18/07/2023,00:54:04,0.000,0.0,0.0,0.0
18/07/2023,00:55:03,-0.001,0.0,0.0,0.0
18/07/2023,00:56:04,0.000,0.0,0.0,0.0
18/07/2023,00:57:04,0.000,0.0,0.0,0.0
18/07/2023,00:58:03,-0.000,0.0,0.0,0.0
18/07/2023,00:59:04,0.000,0.0,0.0,0.0
18/07/2023,01:00:03,-0.001,0.0,0.0,0.0
18/07/2023,01:01:04,0.000,0.0,0.0,0.0
18/07/2023,01:02:04,-0.001,0.0,0.0,0.0
18/07/2023,01:03:04,0.000,0.0,0.0,0.0
18/07/2023,01:04:03,-0.001,0.0,0.0,0.0
18/07/2023,01:05:04,0.000,0.0,0.0,0.0
18/07/2023,01:06:04,0.001,0.0,0.0,0.0
18/07/2023,01:07:04,0.000,0.0,0.0,0.0
18/07/2023,01:08:05,0.000,0.0,0.0,0.0
18/07/2023,01:09:05,-0.001,0.0,0.0,0.0
18/07/2023,01:10:04,0.000,0.0,0.0,0.0
18/07/2023,01:11:04,0.000,0.0,0.0,0.0
18/07/2023,01:12:04,0.000,0.0,0.0,0.0
18/07/2023,01:13:04,0.000,0.0,0.0,0.0
18/07/2023,01:14:05,0.000,0.0,0.0,0.0
18/07/2023,01:15:05,0.001,0.0,0.0,0.0
18/07/2023,01:16:04,0.001,0.0,0.0,0.0
18/07/2023,01:17:04,0.000,0.0,0.0,0.0
18/07/2023,01:18:04,0.000,0.0,0.0,0.0
18/07/2023,01:19:04,0.000,0.0,0.0,0.0
18/07/2023,01:20:04,-0.000,0.0,0.0,0.0
18/07/2023,01:21:04,0.000,0.0,0.0,0.0
18/07/2023,01:22:04,0.000,0.0,0.0,0.0
18/07/2023,01:23:04,0.000,0.0,0.0,0.0
18/07/2023,01:24:04,-0.000,0.0,0.0,0.0
18/07/2023,01:25:04,0.000,0.0,0.0,0.0
18/07/2023,01:26:04,0.000,0.0,0.0,0.0
18/07/2023,01:27:04,0.001,0.0,0.0,0.0
18/07/2023,01:28:04,0.001,0.0,0.0,0.0
18/07/2023,01:29:04,0.000,0.0,0.0,0.0
18/07/2023,01:30:04,0.000,0.0,0.0,0.0
18/07/2023,01:31:04,0.000,0.0,0.0,0.0
18/07/2023,01:32:04,0.001,0.0,0.0,0.0
18/07/2023,01:33:04,0.000,0.0,0.0,0.0
18/07/2023,01:34:03,-0.001,0.0,0.0,0.0
18/07/2023,01:35:04,0.000,0.0,0.0,0.0
18/07/2023,01:36:04,0.000,0.0,0.0,0.0
18/07/2023,01:37:03,0.000,0.0,0.0,0.0
18/07/2023,01:38:04,0.000,0.0,0.0,0.0
18/07/2023,01:39:04,0.000,0.0,0.0,0.0
18/07/2023,01:40:04,0.000,0.0,0.0,0.0
18/07/2023,01:41:04,0.000,0.0,0.0,0.0
18/07/2023,01:42:04,0.000,0.0,0.0,0.0
18/07/2023,01:43:03,0.000,0.0,0.0,0.0
18/07/2023,01:44:04,-0.001,0.0,0.0,0.0
18/07/2023,01:45:04,0.000,0.0,0.0,0.0
18/07/2023,01:46:04,0.000,0.0,0.0,0.0
18/07/2023,01:47:04,-0.000,0.0,0.0,0.0
18/07/2023,01:48:03,0.000,0.0,0.0,0.0
18/07/2023,01:49:04,0.000,0.0,0.0,0.0
18/07/2023,01:50:04,-0.000,0.0,0.0,0.0
18/07/2023,01:51:04,0.000,0.0,0.0,0.0
18/07/2023,01:52:04,0.000,0.0,0.0,0.0
18/07/2023,01:53:04,0.000,0.0,0.0,0.0
18/07/2023,01:54:03,0.001,0.0,0.0,0.0
18/07/2023,01:55:04,-0.001,0.0,0.0,0.0
18/07/2023,01:56:04,0.000,0.0,0.0,0.0
18/07/2023,01:57:04,0.000,0.0,0.0,0.0
18/07/2023,01:58:04,0.001,0.0,0.0,0.0
18/07/2023,01:59:04,-0.000,0.0,0.0,0.0
18/07/2023,02:00:03,0.000,0.0,0.0,0.0
18/07/2023,02:01:04,0.000,0.0,0.0,0.0
18/07/2023,02:02:03,0.000,0.0,0.0,0.0
18/07/2023,02:03:04,0.000,0.0,0.0,0.0
18/07/2023,02:04:04,0.001,0.0,0.0,0.0
18/07/2023,02:05:03,0.000,0.0,0.0,0.0
18/07/2023,02:06:04,-0.000,0.0,0.0,0.0
18/07/2023,02:07:03,0.000,0.0,0.0,0.0
18/07/2023,02:08:04,0.000,0.0,0.0,0.0
18/07/2023,02:09:04,0.001,0.0,0.0,0.0
18/07/2023,02:10:04,0.001,0.0,0.0,0.0
18/07/2023,02:11:03,-0.001,0.0,0.0,0.0
18/07/2023,02:12:04,-0.000,0.0,0.0,0.0
18/07/2023,02:13:03,0.000,0.0,0.0,0.0
18/07/2023,02:14:04,0.001,0.0,0.0,0.0
18/07/2023,02:15:04,0.000,0.0,0.0,0.0
18/07/2023,02:16:04,0.000,0.0,0.0,0.0
18/07/2023,02:17:04,0.000,0.0,0.0,0.0
18/07/2023,02:18:03,0.000,0.0,0.0,0.0
18/07/2023,02:19:04,0.001,0.0,0.0,0.0
18/07/2023,02:20:04,0.000,0.0,0.0,0.0
18/07/2023,02:21:04,0.000,0.0,0.0,0.0
18/07/2023,02:22:04,0.000,0.0,0.0,0.0
18/07/2023,02:23:04,0.000,0.0,0.0,0.0
18/07/2023,02:24:04,-0.001,0.0,0.0,0.0
18/07/2023,02:25:04,0.001,0.0,0.0,0.0
18/07/2023,02:26:04,0.000,0.0,0.0,0.0
18/07/2023,02:27:04,-0.000,0.0,0.0,0.0
18/07/2023,02:28:04,0.000,0.0,0.0,0.0
18/07/2023,02:29:04,-0.000,0.0,0.0,0.0
18/07/2023,02:30:04,0.000,0.0,0.0,0.0
18/07/2023,02:31:03,0.001,0.0,0.0,0.0
18/07/2023,02:32:04,0.001,0.0,0.0,0.0
18/07/2023,02:33:03,0.000,0.0,0.0,0.0
18/07/2023,02:34:04,-0.000,0.0,0.0,0.0
18/07/2023,02:35:03,0.001,0.0,0.0,0.0
18/07/2023,02:36:04,0.000,0.0,0.0,0.0
18/07/2023,02:37:04,0.001,0.0,0.0,0.0
18/07/2023,02:38:04,0.000,0.0,0.0,0.0
18/07/2023,02:39:04,0.000,0.0,0.0,0.0
18/07/2023,02:40:03,0.000,0.0,0.0,0.0
18/07/2023,02:41:04,0.001,0.0,0.0,0.0
18/07/2023,02:42:04,-0.000,0.0,0.0,0.0
18/07/2023,02:43:04,0.000,0.0,0.0,0.0
18/07/2023,02:44:04,0.000,0.0,0.0,0.0
18/07/2023,02:45:04,0.000,0.0,0.0,0.0
18/07/2023,02:46:04,-0.000,0.0,0.0,0.0
18/07/2023,02:47:04,0.001,0.0,0.0,0.0
18/07/2023,02:48:04,0.000,0.0,0.0,0.0
18/07/2023,02:49:03,0.000,0.0,0.0,0.0
18/07/2023,02:50:03,0.000,0.0,0.0,0.0
18/07/2023,02:51:04,0.001,0.0,0.0,0.0
18/07/2023,02:52:04,0.000,0.0,0.0,0.0
18/07/2023,02:53:03,-0.000,0.0,0.0,0.0
18/07/2023,02:54:04,0.001,0.0,0.0,0.0
18/07/2023,02:55:04,0.001,0.0,0.0,0.0
18/07/2023,02:56:04,0.001,0.0,0.0,0.0
18/07/2023,02:57:04,0.001,0.0,0.0,0.0
18/07/2023,02:58:04,-0.000,0.0,0.0,0.0
18/07/2023,02:59:04,-0.000,0.0,0.0,0.0
18/07/2023,03:00:04,-0.000,0.0,0.0,0.0
18/07/2023,03:01:04,0.001,0.0,0.0,0.0
18/07/2023,03:02:04,0.000,0.0,0.0,0.0
18/07/2023,03:03:04,0.001,0.0,0.0,0.0
18/07/2023,03:04:05,0.001,0.0,0.0,0.0
18/07/2023,03:05:05,0.001,0.0,0.0,0.0
18/07/2023,03:06:04,0.001,0.0,0.0,0.0
18/07/2023,03:07:04,0.001,0.0,0.0,0.0
18/07/2023,03:08:03,0.001,0.0,0.0,0.0
18/07/2023,03:09:04,0.001,0.0,0.0,0.0
18/07/2023,03:10:03,0.001,0.0,0.0,0.0
18/07/2023,03:11:04,0.001,0.0,0.0,0.0
18/07/2023,03:12:03,0.000,0.0,0.0,0.0
18/07/2023,03:13:04,0.001,0.0,0.0,0.0
18/07/2023,03:14:04,0.001,0.0,0.0,0.0
18/07/2023,03:15:04,-0.000,0.0,0.0,0.0
18/07/2023,03:16:04,0.001,0.0,0.0,0.0
18/07/2023,03:17:04,0.001,0.0,0.0,0.0
18/07/2023,03:18:04,0.001,0.0,0.0,0.0
18/07/2023,03:19:05,0.001,0.0,0.0,0.0
18/07/2023,03:20:04,0.001,0.0,0.0,0.0
18/07/2023,03:21:04,0.001,0.0,0.0,0.0
18/07/2023,03:22:04,0.001,0.0,0.0,0.0
18/07/2023,03:23:04,0.001,0.0,0.0,0.0
18/07/2023,03:24:04,0.001,0.0,0.0,0.0
18/07/2023,03:25:04,0.001,0.0,0.0,0.0
18/07/2023,03:26:04,0.002,0.0,0.0,0.0
18/07/2023,03:27:04,0.001,0.0,0.0,0.0
18/07/2023,03:28:04,0.001,0.0,0.0,0.0
18/07/2023,03:29:04,-0.000,0.0,0.0,0.0
18/07/2023,03:30:04,0.001,0.0,0.0,0.0
18/07/2023,03:31:04,0.000,0.0,0.0,0.0
18/07/2023,03:32:04,0.001,0.0,0.0,0.0
18/07/2023,03:33:04,0.001,0.0,0.0,0.0
18/07/2023,03:34:04,-0.000,0.0,0.0,0.0
18/07/2023,03:35:04,0.001,0.0,0.0,0.0
18/07/2023,03:36:04,0.002,0.0,0.0,0.0
18/07/2023,03:37:04,0.001,0.0,0.0,0.0
18/07/2023,03:38:04,0.001,0.0,0.0,0.0
18/07/2023,03:39:04,0.001,0.0,0.0,0.0
18/07/2023,03:40:04,0.002,0.0,0.0,0.0
18/07/2023,03:41:04,0.001,0.0,0.0,0.0
18/07/2023,03:42:04,0.001,0.0,0.0,0.0
18/07/2023,03:43:04,0.001,0.0,0.0,0.0
18/07/2023,03:44:04,0.001,0.0,0.0,0.0
18/07/2023,03:45:04,0.001,0.0,0.0,0.0
18/07/2023,03:46:04,0.001,0.0,0.0,0.0
18/07/2023,03:47:04,0.001,0.0,0.0,0.0
18/07/2023,03:48:04,0.001,0.0,0.0,0.0
18/07/2023,03:49:04,0.001,0.0,0.0,0.0
18/07/2023,03:50:04,0.001,0.0,0.0,0.0
18/07/2023,03:51:04,0.001,0.0,0.0,0.0
18/07/2023,03:52:04,0.000,0.0,0.0,0.0
18/07/2023,03:53:04,0.001,0.0,0.0,0.0
18/07/2023,03:54:04,0.001,0.0,0.0,0.0
18/07/2023,03:55:04,0.002,0.0,0.0,0.0
18/07/2023,03:56:04,0.001,0.0,0.0,0.0
18/07/2023,03:57:04,0.001,0.0,0.0,0.0
18/07/2023,03:58:04,0.002,0.0,0.0,0.0
18/07/2023,03:59:04,0.001,0.0,0.0,0.0
18/07/2023,04:00:04,0.002,0.0,0.0,0.0
18/07/2023,04:01:04,0.002,0.0,0.0,0.0
18/07/2023,04:02:04,0.000,0.0,0.0,0.0
18/07/2023,04:03:04,0.002,0.0,0.0,0.0
18/07/2023,04:04:04,0.001,0.0,0.0,0.0
18/07/2023,04:05:04,0.002,0.0,0.0,0.0
18/07/2023,04:06:04,0.002,0.0,0.0,0.0
18/07/2023,04:07:04,0.002,0.0,0.0,0.0
18/07/2023,04:08:04,0.002,0.0,0.0,0.0
18/07/2023,04:09:04,0.002,0.0,0.0,0.0
18/07/2023,04:10:03,0.002,0.0,0.0,0.0
18/07/2023,04:11:04,0.003,0.0,0.0,0.0
18/07/2023,04:12:05,0.003,0.0,0.0,0.0
18/07/2023,04:13:05,0.002,0.0,0.0,0.0
18/07/2023,04:14:04,0.003,0.0,0.0,0.0
18/07/2023,04:15:04,0.003,0.0,0.0,0.0
18/07/2023,04:16:04,0.003,0.0,0.0,0.0
18/07/2023,04:17:04,0.003,0.0,0.0,0.0
18/07/2023,04:18:05,0.004,0.0,0.0,0.0
18/07/2023,04:19:04,0.004,0.0,0.0,0.0
18/07/2023,04:20:04,0.004,0.0,0.0,0.0
18/07/2023,04:21:04,0.004,0.0,0.0,0.0
18/07/2023,04:22:04,0.004,0.0,0.0,0.0
18/07/2023,04:23:04,0.004,0.0,0.0,0.0
18/07/2023,04:24:04,0.005,0.0,0.0,0.0
18/07/2023,04:25:04,0.005,0.0,0.0,0.0
18/07/2023,04:26:04,0.005,0.0,0.0,0.0
18/07/2023,04:27:04,0.005,0.0,0.0,0.0
18/07/2023,04:28:04,0.005,0.0,0.0,0.0
18/07/2023,04:29:04,0.005,0.0,0.0,0.0
18/07/2023,04:30:04,0.005,0.0,0.0,0.0
18/07/2023,04:31:04,0.005,0.0,0.0,0.0
18/07/2023,04:32:04,0.005,0.0,0.0,0.0
18/07/2023,04:33:04,0.005,0.0,0.0,0.0
18/07/2023,04:34:04,0.005,0.0,0.0,0.0
18/07/2023,04:35:04,0.005,0.0,0.0,0.0
18/07/2023,04:36:04,0.005,0.0,0.0,0.0
18/07/2023,04:37:04,0.005,0.0,0.0,0.0
18/07/2023,04:38:04,0.005,0.0,0.0,0.0
18/07/2023,04:39:04,0.005,0.0,0.0,0.0
18/07/2023,04:40:04,0.007,0.0,0.0,0.0
18/07/2023,04:41:04,0.006,0.0,0.0,0.0
18/07/2023,04:42:04,0.006,0.0,0.0,0.0
18/07/2023,04:43:04,0.007,0.0,0.0,0.0
18/07/2023,04:44:04,0.007,0.0,0.0,0.0
18/07/2023,04:45:04,0.008,0.0,0.001,0.001
18/07/2023,04:46:04,0.009,0.0,0.001,0.0
18/07/2023,04:47:05,0.009,0.0,0.001,0.0
18/07/2023,04:48:06,0.009,0.0,0.001,0.0
18/07/2023,04:49:04,0.009,0.0,0.001,0.0
18/07/2023,04:50:04,0.009,0.0,0.001,0.0
18/07/2023,04:51:04,0.011,0.0,0.001,0.0
18/07/2023,04:52:05,0.011,0.0,0.002,0.001
18/07/2023,04:53:04,0.012,0.0,0.002,0.0
18/07/2023,04:54:04,0.012,0.0,0.002,0.0
18/07/2023,04:55:04,0.013,0.0,0.002,0.0
18/07/2023,04:56:04,0.013,0.0,0.002,0.0
18/07/2023,04:57:05,0.013,0.0,0.003,0.001
18/07/2023,04:58:04,0.014,0.0,0.003,0.0
18/07/2023,04:59:05,0.015,0.0,0.003,0.0
18/07/2023,05:00:04,0.015,0.0,0.003,0.0
18/07/2023,05:01:04,0.016,0.0,0.004,0.001
18/07/2023,05:02:04,0.017,0.0,0.004,0.0
18/07/2023,05:03:03,0.017,0.0,0.004,0.0
18/07/2023,05:04:04,0.017,0.0,0.004,0.0
18/07/2023,05:05:04,0.020,0.0,0.005,0.001
18/07/2023,05:06:04,0.019,0.0,0.005,0.0
18/07/2023,05:07:04,0.019,0.0,0.005,0.0
18/07/2023,05:08:04,0.020,0.0,0.006,0.001
18/07/2023,05:09:04,0.020,0.0,0.006,0.0
18/07/2023,05:10:04,0.022,0.0,0.006,0.0
18/07/2023,05:11:04,0.022,0.0,0.007,0.001
18/07/2023,05:12:04,0.023,0.0,0.007,0.0
18/07/2023,05:13:04,0.023,0.0,0.007,0.0
18/07/2023,05:14:04,0.024,0.0,0.008,0.001
18/07/2023,05:15:05,0.026,0.0,0.008,0.0
18/07/2023,05:16:04,0.026,0.0,0.009,0.001
18/07/2023,05:17:04,0.026,0.0,0.009,0.0
18/07/2023,05:18:05,0.027,0.0,0.01,0.001
18/07/2023,05:19:04,0.028,0.0,0.01,0.0
18/07/2023,05:20:04,0.027,0.0,0.01,0.0
18/07/2023,05:21:04,0.029,0.0,0.011,0.001
18/07/2023,05:22:04,0.028,0.0,0.011,0.0
18/07/2023,05:23:04,0.029,0.0,0.012,0.001
18/07/2023,05:24:04,0.031,0.0,0.012,0.0
18/07/2023,05:25:04,0.031,0.0,0.013,0.001
18/07/2023,05:26:04,0.031,0.0,0.013,0.0
18/07/2023,05:27:04,0.033,0.0,0.014,0.001
18/07/2023,05:28:04,0.034,0.0,0.015,0.001
18/07/2023,05:29:04,0.035,0.0,0.015,0.0
18/07/2023,05:30:05,0.036,0.0,0.016,0.001
18/07/2023,05:31:04,0.039,0.0,0.016,0.0
18/07/2023,05:32:04,0.039,0.0,0.017,0.001
18/07/2023,05:33:04,0.041,0.0,0.018,0.001
18/07/2023,05:34:04,0.042,0.0,0.018,0.0
18/07/2023,05:35:04,0.043,0.0,0.019,0.001
18/07/2023,05:36:05,0.045,0.0,0.02,0.001
18/07/2023,05:37:04,0.046,0.0,0.02,0.0
18/07/2023,05:38:04,0.048,0.0,0.021,0.001
18/07/2023,05:39:04,0.049,0.0,0.022,0.001
18/07/2023,05:40:05,0.050,0.0,0.023,0.001
18/07/2023,05:41:04,0.051,0.0,0.024,0.001
18/07/2023,05:42:04,0.051,0.0,0.025,0.001
18/07/2023,05:43:04,0.053,0.0,0.025,0.0
18/07/2023,05:44:04,0.054,0.0,0.026,0.001
18/07/2023,05:45:04,0.057,0.0,0.027,0.001
18/07/2023,05:46:04,0.057,0.0,0.028,0.001
18/07/2023,05:47:04,0.058,0.0,0.029,0.001
18/07/2023,05:48:05,0.058,0.0,0.03,0.001
18/07/2023,05:49:04,0.059,0.0,0.031,0.001
18/07/2023,05:50:05,0.061,0.0,0.032,0.001
18/07/2023,05:51:04,0.062,0.0,0.033,0.001
18/07/2023,05:52:04,0.063,0.0,0.034,0.001
18/07/2023,05:53:04,0.064,0.0,0.035,0.001
18/07/2023,05:54:04,0.063,0.0,0.036,0.001
18/07/2023,05:55:05,0.065,0.0,0.037,0.001
18/07/2023,05:56:04,0.063,0.0,0.038,0.001
18/07/2023,05:57:05,0.062,0.0,0.04,0.002
18/07/2023,05:58:04,0.064,0.0,0.041,0.001
18/07/2023,05:59:04,0.062,0.0,0.042,0.001
18/07/2023,06:00:05,0.061,0.0,0.043,0.001
18/07/2023,06:01:04,0.060,0.0,0.044,0.001
18/07/2023,06:02:04,0.060,0.0,0.045,0.001
18/07/2023,06:03:04,0.059,0.0,0.046,0.001
18/07/2023,06:04:04,0.060,0.0,0.047,0.001
18/07/2023,06:05:05,0.062,0.0,0.048,0.001
18/07/2023,06:06:04,0.062,0.0,0.049,0.001
18/07/2023,06:07:04,0.061,0.0,0.05,0.001
18/07/2023,06:08:04,0.060,0.0,0.051,0.001
18/07/2023,06:09:04,0.061,0.0,0.052,0.001
18/07/2023,06:10:04,0.064,0.0,0.053,0.001
18/07/2023,06:11:04,0.064,0.0,0.054,0.001
18/07/2023,06:12:04,0.066,0.0,0.055,0.001
18/07/2023,06:13:04,0.068,0.0,0.056,0.001
18/07/2023,06:14:04,0.071,0.0,0.057,0.001
18/07/2023,06:15:04,0.073,0.0,0.058,0.001
18/07/2023,06:16:33,0.079,0.0,0.06,0.002
18/07/2023,06:18:04,0.082,0.0,0.062,0.002
18/07/2023,06:19:05,0.085,0.0,0.064,0.002
18/07/2023,06:20:05,0.086,0.0,0.065,0.001
18/07/2023,06:21:04,0.088,0.0,0.067,0.002
18/07/2023,06:22:04,0.091,0.0,0.068,0.001
18/07/2023,06:23:04,0.094,0.0,0.07,0.002
18/07/2023,06:24:04,0.099,0.0,0.071,0.001
18/07/2023,06:25:04,0.103,0.0,0.073,0.002
18/07/2023,06:26:04,0.106,0.0,0.075,0.002
18/07/2023,06:27:05,0.109,0.0,0.076,0.001
18/07/2023,06:28:04,0.112,0.0,0.078,0.002
18/07/2023,06:29:04,0.113,0.0,0.08,0.002
18/07/2023,06:30:04,0.115,0.0,0.082,0.002
18/07/2023,06:31:04,0.115,0.0,0.084,0.002
18/07/2023,06:32:04,0.115,0.0,0.086,0.002
18/07/2023,06:33:04,0.117,0.0,0.088,0.002
18/07/2023,06:34:08,0.118,0.0,0.09,0.002
18/07/2023,06:35:05,0.121,0.0,0.092,0.002
18/07/2023,06:36:04,0.125,0.0,0.094,0.002
18/07/2023,06:37:05,0.127,0.0,0.096,0.002
18/07/2023,06:38:04,0.130,0.0,0.098,0.002
18/07/2023,06:39:04,0.130,0.0,0.1,0.002
18/07/2023,06:40:04,0.133,0.0,0.102,0.002
18/07/2023,06:41:04,0.135,0.0,0.105,0.003
18/07/2023,06:42:05,0.138,0.0,0.107,0.002
18/07/2023,06:43:04,0.141,0.0,0.109,0.002
18/07/2023,06:44:04,0.147,0.0,0.112,0.003
18/07/2023,06:45:04,0.149,0.0,0.114,0.002
18/07/2023,06:46:05,0.152,0.0,0.117,0.003
18/07/2023,06:47:04,0.155,0.0,0.119,0.002
18/07/2023,06:48:04,0.159,0.0,0.122,0.003
18/07/2023,06:49:04,0.160,0.0,0.124,0.002
18/07/2023,06:50:05,0.164,0.0,0.127,0.003
18/07/2023,06:51:04,0.169,0.0,0.13,0.003
18/07/2023,06:52:04,0.175,0.0,0.133,0.003
18/07/2023,06:53:04,0.180,0.0,0.136,0.003
18/07/2023,06:54:05,0.188,0.0,0.139,0.003
18/07/2023,06:55:04,0.194,0.0,0.142,0.003
18/07/2023,06:56:05,0.201,0.0,0.145,0.003
18/07/2023,06:57:04,0.207,0.0,0.149,0.004
18/07/2023,06:58:04,0.212,0.0,0.152,0.003
18/07/2023,06:59:05,0.218,1.0,0.156,0.004
18/07/2023,07:00:04,0.225,1.0,0.159,0.003
18/07/2023,07:01:04,0.229,1.0,0.163,0.004
18/07/2023,07:02:05,0.233,1.0,0.167,0.004
18/07/2023,07:03:04,0.238,1.0,0.171,0.004
18/07/2023,07:04:05,0.242,1.0,0.175,0.004
18/07/2023,07:05:04,0.248,1.0,0.179,0.004
18/07/2023,07:06:04,0.250,1.0,0.183,0.004
18/07/2023,07:07:04,0.251,1.0,0.187,0.004
18/07/2023,07:08:05,0.252,1.0,0.191,0.004
18/07/2023,07:09:04,0.250,1.0,0.196,0.005
18/07/2023,07:10:04,0.250,1.0,0.2,0.004
18/07/2023,07:11:04,0.245,1.0,0.204,0.004
18/07/2023,07:12:04,0.244,1.0,0.208,0.004
18/07/2023,07:13:04,0.245,1.0,0.212,0.004
18/07/2023,07:14:04,0.247,1.0,0.216,0.004
18/07/2023,07:15:05,0.248,1.0,0.22,0.004
18/07/2023,07:16:04,0.248,1.0,0.225,0.005
18/07/2023,07:17:04,0.251,1.0,0.229,0.004
18/07/2023,07:18:04,0.253,1.0,0.233,0.004
18/07/2023,07:19:04,0.263,1.0,0.237,0.004
18/07/2023,07:20:05,0.266,1.0,0.242,0.005
18/07/2023,07:21:04,0.273,1.0,0.246,0.004
18/07/2023,07:22:04,0.278,1.0,0.251,0.005
18/07/2023,07:23:05,0.278,1.0,0.255,0.004
18/07/2023,07:24:04,0.276,1.0,0.26,0.005
18/07/2023,07:25:04,0.273,1.0,0.265,0.005
18/07/2023,07:26:05,0.271,1.0,0.269,0.004
18/07/2023,07:27:04,0.268,1.0,0.274,0.005
18/07/2023,07:28:04,0.269,1.0,0.278,0.004
18/07/2023,07:29:05,0.271,1.0,0.283,0.005
18/07/2023,07:30:04,0.275,1.0,0.287,0.004
18/07/2023,07:31:05,0.279,1.0,0.292,0.005
18/07/2023,07:32:04,0.283,1.0,0.296,0.004
18/07/2023,07:33:05,0.289,1.0,0.301,0.005
18/07/2023,07:34:05,0.297,1.0,0.306,0.005
18/07/2023,07:35:04,0.306,1.0,0.311,0.005
18/07/2023,07:36:04,0.318,1.0,0.316,0.005
18/07/2023,07:37:05,0.330,1.0,0.322,0.006
18/07/2023,07:38:05,0.340,1.0,0.327,0.005
18/07/2023,07:39:05,0.349,1.0,0.333,0.006
18/07/2023,07:40:04,0.357,1.0,0.339,0.006
18/07/2023,07:41:04,0.364,1.0,0.345,0.006
18/07/2023,07:42:05,0.372,1.0,0.351,0.006
18/07/2023,07:43:04,0.376,1.0,0.357,0.006
18/07/2023,07:44:04,0.377,1.0,0.363,0.006
18/07/2023,07:45:04,0.385,1.0,0.37,0.007
18/07/2023,07:46:08,0.398,1.0,0.377,0.007
18/07/2023,07:47:05,0.409,1.0,0.383,0.006
18/07/2023,07:48:04,0.419,1.0,0.39,0.007
18/07/2023,07:49:05,0.432,1.0,0.397,0.007
18/07/2023,07:50:04,0.442,1.0,0.404,0.007
18/07/2023,07:51:04,0.449,1.0,0.412,0.008
18/07/2023,07:52:04,0.458,1.0,0.419,0.007
18/07/2023,07:53:04,0.461,1.0,0.427,0.008
18/07/2023,07:54:04,0.460,1.0,0.435,0.008
18/07/2023,07:55:05,0.480,1.0,0.442,0.007
18/07/2023,07:56:03,0.482,1.0,0.45,0.008
18/07/2023,07:57:26,0.455,1.0,0.461,0.011
18/07/2023,07:59:05,0.462,1.0,0.474,0.013
18/07/2023,08:00:04,0.468,1.0,0.481,0.007
18/07/2023,08:01:04,0.476,1.0,0.489,0.008
18/07/2023,08:02:04,0.498,1.0,0.497,0.008
18/07/2023,08:03:05,0.498,1.0,0.506,0.009
18/07/2023,08:04:04,0.503,1.0,0.514,0.008
18/07/2023,08:05:05,0.507,1.0,0.522,0.008
18/07/2023,08:06:04,0.521,1.0,0.531,0.009
18/07/2023,08:07:05,0.539,1.0,0.54,0.009
18/07/2023,08:08:04,0.553,1.0,0.549,0.009
18/07/2023,08:09:05,0.556,1.0,0.558,0.009
18/07/2023,08:10:04,0.562,1.0,0.568,0.01
18/07/2023,08:11:04,0.565,1.0,0.577,0.009
18/07/2023,08:12:05,0.561,1.0,0.586,0.009
18/07/2023,08:13:04,0.603,1.0,0.596,0.01
18/07/2023,08:14:04,0.612,1.0,0.606,0.01
18/07/2023,08:15:05,0.630,1.0,0.616,0.01
18/07/2023,08:16:04,0.659,2.0,0.627,0.011
18/07/2023,08:17:04,0.695,2.0,0.638,0.011
18/07/2023,08:18:05,0.638,1.0,0.649,0.011
18/07/2023,08:19:04,0.665,2.0,0.66,0.011
18/07/2023,08:20:05,0.698,2.0,0.672,0.012
18/07/2023,08:21:04,0.643,1.0,0.683,0.011
18/07/2023,08:22:04,0.632,1.0,0.693,0.01
18/07/2023,08:23:05,0.644,1.0,0.704,0.011
18/07/2023,08:24:05,0.655,2.0,0.715,0.011
18/07/2023,08:25:05,0.706,2.0,0.726,0.011
18/07/2023,08:26:04,0.650,1.0,0.738,0.012
18/07/2023,08:27:05,0.632,1.0,0.748,0.01
18/07/2023,08:28:03,0.638,1.0,0.759,0.011
18/07/2023,08:29:26,0.628,1.0,0.774,0.015
18/07/2023,08:31:05,0.615,1.0,0.791,0.017
18/07/2023,08:32:06,0.614,1.0,0.801,0.01
18/07/2023,08:33:05,0.619,1.0,0.811,0.01
18/07/2023,08:34:05,0.631,1.0,0.822,0.011
18/07/2023,08:35:04,0.659,2.0,0.832,0.01
18/07/2023,08:36:04,0.690,2.0,0.844,0.012
18/07/2023,08:37:04,0.704,2.0,0.855,0.011
18/07/2023,08:38:05,0.728,2.0,0.867,0.012
18/07/2023,08:39:04,0.754,2.0,0.88,0.013
18/07/2023,08:40:04,0.714,2.0,0.892,0.012
18/07/2023,08:41:05,0.704,2.0,0.904,0.012
18/07/2023,08:42:05,0.692,2.0,0.916,0.012
18/07/2023,08:43:05,0.678,2.0,0.927,0.011
18/07/2023,08:44:04,0.669,2.0,0.939,0.012
18/07/2023,08:45:04,0.671,2.0,0.95,0.011
18/07/2023,08:46:04,0.683,2.0,0.961,0.011
18/07/2023,08:47:05,0.713,2.0,0.973,0.012
18/07/2023,08:48:04,0.764,2.0,0.985,0.012
18/07/2023,08:49:05,0.752,2.0,0.997,0.012
18/07/2023,08:50:04,0.800,2.0,1.01,0.013
18/07/2023,08:51:05,0.806,2.0,1.024,0.014
18/07/2023,08:52:04,0.836,2.0,1.037,0.013
18/07/2023,08:53:04,0.841,2.0,1.051,0.014
18/07/2023,08:54:05,0.834,2.0,1.065,0.014
18/07/2023,08:55:04,0.883,2.0,1.08,0.015
18/07/2023,08:56:04,0.904,2.0,1.095,0.015
18/07/2023,08:57:04,0.974,2.0,1.111,0.016
18/07/2023,08:58:05,0.994,2.0,1.127,0.016
18/07/2023,08:59:04,0.974,2.0,1.143,0.016
18/07/2023,09:00:04,0.905,2.0,1.159,0.016
18/07/2023,09:01:05,0.910,2.0,1.174,0.015
18/07/2023,09:02:04,1.047,2.0,1.191,0.017
18/07/2023,09:03:05,1.104,3.0,1.209,0.018
18/07/2023,09:04:04,1.125,3.0,1.227,0.018
18/07/2023,09:05:05,1.068,2.0,1.246,0.019
18/07/2023,09:06:04,1.134,3.0,1.264,0.018
18/07/2023,09:07:05,1.175,3.0,1.284,0.02
18/07/2023,09:08:05,1.199,3.0,1.303,0.019
18/07/2023,09:09:04,1.221,3.0,1.324,0.021
18/07/2023,09:10:05,1.216,3.0,1.344,0.02
18/07/2023,09:11:04,1.065,2.0,1.363,0.019
18/07/2023,09:12:04,1.129,3.0,1.381,0.018
18/07/2023,09:13:04,1.007,2.0,1.399,0.018
18/07/2023,09:14:05,1.059,2.0,1.416,0.017
18/07/2023,09:15:04,1.116,3.0,1.433,0.017
18/07/2023,09:16:04,1.224,3.0,1.453,0.02
18/07/2023,09:17:04,1.249,3.0,1.473,0.02
18/07/2023,09:18:04,1.229,3.0,1.494,0.021
18/07/2023,09:19:04,1.191,3.0,1.514,0.02
18/07/2023,09:20:04,1.214,3.0,1.534,0.02
18/07/2023,09:21:04,1.135,3.0,1.554,0.02
18/07/2023,09:22:05,1.151,3.0,1.573,0.019
18/07/2023,09:23:05,1.168,3.0,1.593,0.02
18/07/2023,09:24:04,1.298,3.0,1.613,0.02
18/07/2023,09:25:04,1.398,3.0,1.635,0.022
18/07/2023,09:26:05,1.413,3.0,1.658,0.023
18/07/2023,09:27:04,1.410,3.0,1.682,0.024
18/07/2023,09:28:05,1.249,3.0,1.703,0.021
18/07/2023,09:29:04,1.185,3.0,1.723,0.02
18/07/2023,09:30:05,1.476,3.0,1.745,0.022
18/07/2023,09:31:04,1.251,3.0,1.769,0.024
18/07/2023,09:32:05,1.176,3.0,1.79,0.021
18/07/2023,09:33:04,1.246,3.0,1.81,0.02
18/07/2023,09:34:04,1.238,3.0,1.832,0.022
18/07/2023,09:35:04,1.332,3.0,1.853,0.021
18/07/2023,09:36:04,1.554,4.0,1.876,0.023
18/07/2023,09:37:04,1.464,3.0,1.901,0.025
18/07/2023,09:38:04,1.370,3.0,1.925,0.024
18/07/2023,09:39:06,1.519,3.0,1.95,0.025
18/07/2023,09:40:05,1.317,3.0,1.974,0.024
18/07/2023,09:41:04,1.076,2.0,1.994,0.02
18/07/2023,09:42:05,1.321,3.0,2.015,0.021
18/07/2023,09:43:05,1.196,3.0,2.036,0.021
18/07/2023,09:44:04,1.216,3.0,2.056,0.02
18/07/2023,09:45:05,1.085,2.0,2.074,0.018
18/07/2023,09:46:04,1.286,3.0,2.094,0.02
18/07/2023,09:47:05,1.138,3.0,2.114,0.02
18/07/2023,09:48:04,1.166,3.0,2.133,0.019
18/07/2023,09:49:04,1.182,3.0,2.153,0.02
18/07/2023,09:50:05,1.397,3.0,2.174,0.021
18/07/2023,09:51:05,1.185,3.0,2.197,0.023
18/07/2023,09:52:05,1.148,3.0,2.216,0.019
18/07/2023,09:53:04,1.152,3.0,2.236,0.02
18/07/2023,09:54:05,1.172,3.0,2.255,0.019
18/07/2023,09:55:04,1.147,3.0,2.274,0.019
18/07/2023,09:56:04,1.275,3.0,2.295,0.021
18/07/2023,09:57:05,1.342,3.0,2.317,0.022
18/07/2023,09:58:05,1.265,3.0,2.338,0.021
18/07/2023,09:59:05,1.339,3.0,2.361,0.023